Погода в Камыш-Заре

Украина / Запорожская область     47°19′37″N   36°41′35″E
темп.,
°C
ветер,
м/с
пор.,
м/с
влажн.,
%
обл.,
%
осадки,
мм/ч
давл.,
гПа
погр.,
м
4 марта, чт
чт423:000зсз23730 0.0 102551
02:000з23740 0.0 102550
05:00−1зюз36790 0.0 1024142
08:00+2зюз69650 0.0 1023460
11:00+6зюз7104920 0.0 1021968
14:00+8юз8115510 0.0 10191215
17:00+5юз712670 0.0 1016545
20:00+3юз7137838 0.0 1016424
5 марта, пт
пт523:00+2юз7168133 0.0 1015495
02:00+2юз7159125 0.0 1014529
05:00+2юз7149477 0.0 1013437
08:00+3юз7119286 0.0 1014472
11:00+5юз6886100 0.0 1013607
14:00+8юз696999 0.0 1012828
17:00+6ююз6107689 0.0 1011384
20:00+4ююз5108995 0.0 1011274
6 марта, сб
сб623:00+4зюз4890100 0.0 1012173
02:00+4зсз4995100 0.2 1013295
05:00+2сз6996100 1.1 1014387
08:00+2сз6880100 1.1 1016697
11:00+2ссз7972100 0.0 1017792
14:00+3сз7948100 0.0 10181445
17:00+1сз71059100 0.0 10191318
20:00−2ссз7115180 0.0 10221336
7 марта, вс
вс723:00−3сз710470 0.0 10241342
02:00−3сз610510 0.0 10251086
05:00−4сз59550 0.0 1026813
08:00−2зсз57460 0.0 1026925
11:00+1з68340 0.0 10251247
14:00+2зюз710400 0.0 10221433
17:00+1зюз511510 0.0 1020500
20:00−1зюз614600 0.0 1020510
8 марта, пн
пн823:00−2зюз715640 0.0 1018528
02:00−1зюз715726 0.0 1017556
05:00−1зюз7147879 0.0 1015461
08:00+1з7116568 0.0 1015676
11:00+5з9134554 0.0 10151769
14:00+6з8124769 0.0 10141942
17:00+3зсз5964100 0.0 1014658
20:00+1зсз41074100 0.0 1015493